Time,TemperatureF,DewpointF,PressureIn,WindDirection,WindDirectionDegrees,WindSpeedMPH,WindSpeedGustMPH,Humidity,HourlyPrecipIn,Conditions,Clouds,dailyrainin,SoftwareType,DateUTC
2013-06-03 00:03:00,71.7,61.4,-100.00,North,360,0.0,0.0,70,-99.99,,,-99.99,WSDL version 423,2013-06-03 04:03:00,
2013-06-03 00:09:00,71.6,61.7,-100.00,North,360,0.0,0.0,71,-99.99,,,-99.99,WSDL version 423,2013-06-03 04:09:00,
2013-06-03 00:12:00,71.5,61.6,-100.00,North,360,0.0,0.0,71,-99.99,,,-99.99,WSDL version 423,2013-06-03 04:12:00,
2013-06-03 00:18:00,71.4,61.5,-100.00,North,360,0.0,0.0,71,-99.99,,,-99.99,WSDL version 423,2013-06-03 04:18:00,
2013-06-03 00:21:00,71.3,61.6,-100.00,North,360,0.0,0.0,72,-99.99,,,-99.99,WSDL version 423,2013-06-03 04:21:00,
2013-06-03 00:27:00,71.2,61.8,-100.00,North,360,0.0,0.0,72,-99.99,,,-99.99,WSDL version 423,2013-06-03 04:27:00,
2013-06-03 00:33:00,71.1,61.6,-100.00,SE,135,0.0,0.0,72,-99.99,,,-99.99,WSDL version 423,2013-06-03 04:33:00,
2013-06-03 00:36:00,71.1,61.6,-100.00,SE,146,0.0,0.0,72,-99.99,,,-99.99,WSDL version 423,2013-06-03 04:36:00,
2013-06-03 00:42:00,71.1,61.6,-100.00,East,90,0.0,0.0,72,-99.99,,,-99.99,WSDL version 423,2013-06-03 04:42:00,
2013-06-03 00:48:00,71.2,61.8,-100.00,South,180,0.0,0.0,72,-99.99,,,-99.99,WSDL version 423,2013-06-03 04:48:00,
2013-06-03 00:54:00,71.2,62.0,-100.00,South,180,0.0,0.0,73,-99.99,,,-99.99,WSDL version 423,2013-06-03 04:54:00,
2013-06-03 01:00:00,71.2,62.1,-100.00,South,186,0.0,0.0,73,-99.99,,,-99.99,WSDL version 423,2013-06-03 05:00:00,
2013-06-03 01:06:00,71.2,62.1,-100.00,South,180,0.0,0.0,73,-99.99,,,-99.99,WSDL version 423,2013-06-03 05:06:00,
2013-06-03 01:12:00,71.2,62.1,-100.00,SSE,165,0.0,0.0,73,-99.99,,,-99.99,WSDL version 423,2013-06-03 05:12:00,
2013-06-03 01:18:00,71.1,62.3,-100.00,South,180,0.0,0.0,74,-99.99,,,-99.99,WSDL version 423,2013-06-03 05:18:00,
2013-06-03 01:24:00,71.1,62.4,-100.00,SE,135,0.0,0.0,74,-99.99,,,-99.99,WSDL version 423,2013-06-03 05:24:00,
2013-06-03 01:30:00,70.9,62.2,-100.00,SSE,155,0.0,0.0,74,-99.99,,,-99.99,WSDL version 423,2013-06-03 05:30:00,
2013-06-03 01:36:00,70.9,62.2,-100.00,South,180,0.0,0.0,74,-99.99,,,-99.99,WSDL version 423,2013-06-03 05:36:00,
2013-06-03 01:42:00,70.8,62.1,-100.00,East,96,0.0,0.0,75,-99.99,,,-99.99,WSDL version 423,2013-06-03 05:42:00,
2013-06-03 01:48:00,70.7,62.4,-100.00,SE,135,0.0,0.0,75,-99.99,,,-99.99,WSDL version 423,2013-06-03 05:48:00,
2013-06-03 01:54:00,70.6,62.3,-100.00,SE,135,0.0,0.0,75,-99.99,,,-99.99,WSDL version 423,2013-06-03 05:54:00,
2013-06-03 02:00:00,70.5,62.2,-100.00,SE,146,0.0,0.0,75,-99.99,,,-99.99,WSDL version 423,2013-06-03 06:00:00,
2013-06-03 02:06:00,70.5,62.2,-100.00,NW,312,0.4,2.7,75,-99.99,,,-99.99,WSDL version 423,2013-06-03 06:06:00,
2013-06-03 02:12:00,70.5,62.0,-100.00,SE,132,1.2,2.9,74,-99.99,,,-99.99,WSDL version 423,2013-06-03 06:12:00,
2013-06-03 02:18:00,70.5,61.8,-100.00,South,180,0.6,4.0,74,-99.99,,,-99.99,WSDL version 423,2013-06-03 06:18:00,
2013-06-03 02:24:00,70.5,61.9,-100.00,South,180,0.0,4.0,75,-99.99,,,-99.99,WSDL version 423,2013-06-03 06:24:00,
2013-06-03 02:30:00,70.3,62.0,-100.00,SSW,195,0.0,1.3,75,-99.99,,,-99.99,WSDL version 423,2013-06-03 06:30:00,
2013-06-03 02:36:00,70.3,62.0,-100.00,SSE,158,0.1,3.4,75,-99.99,,,-99.99,WSDL version 423,2013-06-03 06:36:00,
2013-06-03 02:42:00,70.2,61.9,-100.00,SE,135,0.0,3.4,75,-99.99,,,-99.99,WSDL version 423,2013-06-03 06:42:00,
2013-06-03 02:48:00,70.2,62.2,-100.00,South,180,0.0,0.0,76,-99.99,,,-99.99,WSDL version 423,2013-06-03 06:48:00,
2013-06-03 02:54:00,70.2,62.2,-100.00,South,170,0.0,1.6,76,-99.99,,,-99.99,WSDL version 423,2013-06-03 06:54:00,
2013-06-03 03:00:00,70.2,62.2,-100.00,South,183,0.0,3.1,76,-99.99,,,-99.99,WSDL version 423,2013-06-03 07:00:00,
2013-06-03 03:06:00,70.2,62.2,-100.00,South,180,0.8,3.4,76,-99.99,,,-99.99,WSDL version 423,2013-06-03 07:06:00,
2013-06-03 03:12:00,70.2,62.2,-100.00,South,180,0.0,4.9,76,-99.99,,,-99.99,WSDL version 423,2013-06-03 07:12:00,
2013-06-03 03:18:00,70.2,62.6,-100.00,South,180,0.0,0.0,77,-99.99,,,-99.99,WSDL version 423,2013-06-03 07:18:00,
2013-06-03 03:24:00,70.1,62.6,-100.00,SSE,154,0.0,1.1,77,0.04,,,0.08,WSDL version 423,2013-06-03 07:24:00,
2013-06-03 03:30:00,70.0,62.7,-100.00,SSW,197,0.4,2.2,78,-99.99,,,-99.99,WSDL version 423,2013-06-03 07:30:00,
2013-06-03 03:36:00,70.0,62.8,-100.00,West,259,0.0,2.2,78,-99.99,,,-99.99,WSDL version 423,2013-06-03 07:36:00,
2013-06-03 03:42:00,70.0,62.8,-100.00,SSE,155,0.0,0.0,78,-99.99,,,-99.99,WSDL version 423,2013-06-03 07:42:00,
2013-06-03 03:48:00,70.0,62.8,-100.00,SSE,158,0.0,0.0,78,-99.99,,,-99.99,WSDL version 423,2013-06-03 07:48:00,
2013-06-03 03:54:00,70.0,62.8,-100.00,South,180,0.4,2.2,78,-99.99,,,-99.99,WSDL version 423,2013-06-03 07:54:00,
2013-06-03 04:00:00,70.0,63.0,-100.00,SW,225,0.0,2.2,79,-99.99,,,-99.99,WSDL version 423,2013-06-03 08:00:00,
2013-06-03 04:06:00,69.9,63.1,-100.00,SSE,166,0.0,1.1,79,-99.99,,,-99.99,WSDL version 423,2013-06-03 08:06:00,
2013-06-03 04:12:00,69.8,63.0,-100.00,SSE,158,0.0,1.1,79,-99.99,,,-99.99,WSDL version 423,2013-06-03 08:12:00,
2013-06-03 04:18:00,69.8,63.0,-100.00,SE,135,0.0,0.0,79,-99.99,,,-99.99,WSDL version 423,2013-06-03 08:18:00,
2013-06-03 04:24:00,69.8,63.0,-100.00,SE,143,0.3,1.1,79,-99.99,,,-99.99,WSDL version 423,2013-06-03 08:24:00,
2013-06-03 04:30:00,69.8,63.0,-100.00,SE,135,0.0,1.1,79,-99.99,,,-99.99,WSDL version 423,2013-06-03 08:30:00,
2013-06-03 04:36:00,69.8,63.0,-100.00,SE,135,0.0,0.0,79,-99.99,,,-99.99,WSDL version 423,2013-06-03 08:36:00,
2013-06-03 04:42:00,69.8,63.3,-100.00,SE,145,0.0,0.0,80,-99.99,,,-99.99,WSDL version 423,2013-06-03 08:42:00,
2013-06-03 04:48:00,69.8,63.4,-100.00,South,180,0.0,0.0,80,-99.99,,,-99.99,WSDL version 423,2013-06-03 08:48:00,
2013-06-03 04:54:00,69.8,63.3,-100.00,South,180,0.0,0.0,80,-99.99,,,-99.99,WSDL version 423,2013-06-03 08:54:00,
2013-06-03 05:00:00,69.6,63.4,-100.00,South,180,0.0,0.0,81,-99.99,,,-99.99,WSDL version 423,2013-06-03 09:00:00,
2013-06-03 05:06:00,69.6,63.6,-100.00,South,180,0.0,0.0,81,-99.99,,,-99.99,WSDL version 423,2013-06-03 09:06:00,
2013-06-03 05:12:00,69.6,63.6,-100.00,South,180,0.0,0.0,81,-99.99,,,-99.99,WSDL version 423,2013-06-03 09:12:00,
2013-06-03 05:18:00,69.6,63.6,-100.00,South,180,0.0,0.0,81,-99.99,,,-99.99,WSDL version 423,2013-06-03 09:18:00,
2013-06-03 05:24:00,69.6,63.6,-100.00,South,180,0.0,0.0,81,-99.99,,,-99.99,WSDL version 423,2013-06-03 09:24:00,
2013-06-03 05:30:00,69.6,63.6,-100.00,SSW,203,0.0,0.0,81,-99.99,,,-99.99,WSDL version 423,2013-06-03 09:30:00,
2013-06-03 05:36:00,69.8,63.7,-100.00,SSE,161,0.0,0.0,81,-99.99,,,-99.99,WSDL version 423,2013-06-03 09:36:00,
2013-06-03 05:42:00,69.8,63.7,-100.00,SSE,158,0.0,0.0,81,-99.99,,,-99.99,WSDL version 423,2013-06-03 09:42:00,
2013-06-03 05:48:00,69.8,63.7,-100.00,SSE,158,0.0,0.0,81,-99.99,,,-99.99,WSDL version 423,2013-06-03 09:48:00,
2013-06-03 05:54:00,69.8,63.8,-100.00,SSE,164,0.0,0.0,81,-99.99,,,-99.99,WSDL version 423,2013-06-03 09:54:00,
2013-06-03 06:00:00,70.0,63.9,-100.00,South,180,0.0,0.0,81,-99.99,,,-99.99,WSDL version 423,2013-06-03 10:00:00,
2013-06-03 06:06:00,70.0,63.9,-100.00,West,270,0.0,0.0,81,-99.99,,,-99.99,WSDL version 423,2013-06-03 10:06:00,
2013-06-03 06:12:00,70.0,63.9,-100.00,South,180,0.0,2.7,81,-99.99,,,-99.99,WSDL version 423,2013-06-03 10:12:00,
2013-06-03 06:18:00,70.1,64.1,-100.00,South,180,0.0,1.6,81,0.00,,,0.08,WSDL version 423,2013-06-03 10:18:00,
2013-06-03 06:24:00,70.2,64.1,-100.00,South,177,0.0,0.0,81,0.00,,,0.08,WSDL version 423,2013-06-03 10:24:00,
2013-06-03 06:30:00,70.2,64.2,-100.00,South,180,0.0,1.6,81,-99.99,,,-99.99,WSDL version 423,2013-06-03 10:30:00,
2013-06-03 06:36:00,70.2,64.2,-100.00,South,180,0.0,1.6,82,0.00,,,0.08,WSDL version 423,2013-06-03 10:36:00,
2013-06-03 06:42:00,70.2,64.5,-100.00,South,180,0.0,0.0,82,-99.99,,,-99.99,WSDL version 423,2013-06-03 10:42:00,
2013-06-03 06:48:00,70.2,64.5,-100.00,South,180,0.0,0.0,82,-99.99,,,-99.99,WSDL version 423,2013-06-03 10:48:00,
2013-06-03 06:54:00,70.2,64.6,-100.00,South,180,0.0,0.0,82,-99.99,,,-99.99,WSDL version 423,2013-06-03 10:54:00,
2013-06-03 07:00:00,70.2,64.5,-100.00,South,180,0.0,0.0,82,-99.99,,,-99.99,WSDL version 423,2013-06-03 11:00:00,
2013-06-03 07:06:00,70.2,64.5,-100.00,South,180,0.0,0.0,82,-99.99,,,-99.99,WSDL version 423,2013-06-03 11:06:00,
2013-06-03 07:12:00,70.2,64.5,-100.00,South,180,0.0,0.0,82,-99.99,,,-99.99,WSDL version 423,2013-06-03 11:12:00,
2013-06-03 07:18:00,70.2,64.5,-100.00,South,180,0.0,0.0,82,-99.99,,,-99.99,WSDL version 423,2013-06-03 11:18:00,
2013-06-03 07:24:00,70.2,64.5,-100.00,South,174,0.0,0.9,82,-99.99,,,-99.99,WSDL version 423,2013-06-03 11:24:00,
2013-06-03 07:30:00,70.2,64.5,-100.00,SE,132,0.0,0.9,82,-99.99,,,-99.99,WSDL version 423,2013-06-03 11:30:00,
2013-06-03 07:36:00,70.2,64.6,-100.00,West,270,0.0,0.0,82,-99.99,,,-99.99,WSDL version 423,2013-06-03 11:36:00,
2013-06-03 07:42:00,70.4,64.7,-100.00,NW,315,0.0,0.0,82,-99.99,,,-99.99,WSDL version 423,2013-06-03 11:42:00,
2013-06-03 07:48:00,70.6,64.9,-100.00,South,180,0.0,0.0,82,-99.99,,,-99.99,WSDL version 423,2013-06-03 11:48:00,
2013-06-03 07:54:00,70.9,65.2,-100.00,SSE,155,0.0,1.3,82,-99.99,,,-99.99,WSDL version 423,2013-06-03 11:54:00,
2013-06-03 08:00:00,70.9,65.2,-100.00,South,180,0.4,2.9,82,-99.99,,,-99.99,WSDL version 423,2013-06-03 12:00:00,
2013-06-03 08:06:00,70.8,65.1,-100.00,SE,135,0.0,2.9,82,-99.99,,,-99.99,WSDL version 423,2013-06-03 12:06:00,
2013-06-03 08:12:00,70.8,65.1,-100.00,South,180,0.0,2.5,82,-99.99,,,-99.99,WSDL version 423,2013-06-03 12:12:00,
2013-06-03 08:18:00,70.8,65.1,-100.00,SSW,198,0.0,0.0,82,-99.99,,,-99.99,WSDL version 423,2013-06-03 12:18:00,
2013-06-03 08:24:00,70.7,65.0,-100.00,SW,231,0.0,2.2,82,-99.99,,,-99.99,WSDL version 423,2013-06-03 12:24:00,
2013-06-03 08:30:00,70.6,65.0,-100.00,SSE,158,0.0,1.6,82,-99.99,,,-99.99,WSDL version 423,2013-06-03 12:30:00,
2013-06-03 08:36:00,70.5,64.8,-100.00,SSW,208,0.0,0.0,82,-99.99,,,-99.99,WSDL version 423,2013-06-03 12:36:00,
2013-06-03 08:42:00,70.5,64.8,-100.00,South,180,0.0,1.1,82,-99.99,,,-99.99,WSDL version 423,2013-06-03 12:42:00,
2013-06-03 08:48:00,70.3,64.7,-100.00,SSE,166,0.0,1.6,82,-99.99,,,-99.99,WSDL version 423,2013-06-03 12:48:00,
2013-06-03 08:54:00,70.3,64.9,-100.00,SSE,158,0.0,1.6,83,-99.99,,,-99.99,WSDL version 423,2013-06-03 12:54:00,
2013-06-03 09:00:00,70.5,65.2,-100.00,SE,146,0.0,0.0,83,-99.99,,,-99.99,WSDL version 423,2013-06-03 13:00:00,
2013-06-03 09:06:00,70.5,65.2,-100.00,SSW,197,0.0,1.3,83,-99.99,,,-99.99,WSDL version 423,2013-06-03 13:06:00,
2013-06-03 09:12:00,70.3,65.1,-100.00,SSE,148,0.4,1.3,83,-99.99,,,-99.99,WSDL version 423,2013-06-03 13:12:00,
2013-06-03 09:18:00,70.4,65.1,-100.00,SE,135,0.0,1.3,83,-99.99,,,-99.99,WSDL version 423,2013-06-03 13:18:00,
2013-06-03 09:24:00,70.6,65.3,-100.00,South,186,0.4,1.1,83,-99.99,,,-99.99,WSDL version 423,2013-06-03 13:24:00,
2013-06-03 09:30:00,70.9,65.6,-100.00,South,180,0.2,2.0,83,-99.99,,,-99.99,WSDL version 423,2013-06-03 13:30:00,
2013-06-03 09:36:00,71.1,65.8,-100.00,SSE,158,0.4,2.0,83,-99.99,,,-99.99,WSDL version 423,2013-06-03 13:36:00,
2013-06-03 09:42:00,70.8,65.5,-100.00,East,90,0.0,3.1,83,0.17,,,0.25,WSDL version 423,2013-06-03 13:42:00,
2013-06-03 09:48:00,71.0,65.7,-100.00,SE,135,0.0,3.1,83,0.17,,,0.25,WSDL version 423,2013-06-03 13:48:00,
2013-06-03 09:54:00,71.6,66.0,-100.00,ESE,113,0.0,1.1,82,-99.99,,,-99.99,WSDL version 423,2013-06-03 13:54:00,
2013-06-03 10:00:00,71.8,66.1,-100.00,East,88,0.0,1.6,82,-99.99,,,-99.99,WSDL version 423,2013-06-03 14:00:00,
2013-06-03 10:06:00,72.0,65.9,-100.00,NW,315,0.0,2.0,81,0.17,,,0.25,WSDL version 423,2013-06-03 14:06:00,
2013-06-03 10:12:00,72.5,66.4,-100.00,East,80,0.0,0.0,81,0.17,,,0.25,WSDL version 423,2013-06-03 14:12:00,
2013-06-03 10:18:00,73.0,66.8,-100.00,East,93,0.0,0.0,81,-99.99,,,-99.99,WSDL version 423,2013-06-03 14:18:00,
2013-06-03 10:24:00,73.8,67.1,-100.00,SE,141,0.0,2.5,79,-99.99,,,-99.99,WSDL version 423,2013-06-03 14:24:00,
2013-06-03 10:30:00,73.9,66.7,-100.00,South,180,0.0,2.5,78,-99.99,,,-99.99,WSDL version 423,2013-06-03 14:30:00,
2013-06-03 10:36:00,74.0,66.7,-100.00,East,90,0.0,1.1,78,-99.99,,,-99.99,WSDL version 423,2013-06-03 14:36:00,
2013-06-03 10:42:00,73.9,66.2,-100.00,SW,214,0.0,1.6,77,-99.99,,,-99.99,WSDL version 423,2013-06-03 14:42:00,
2013-06-03 10:48:00,73.7,65.8,-100.00,East,96,0.0,1.6,76,-99.99,,,-99.99,WSDL version 423,2013-06-03 14:48:00,
2013-06-03 10:54:00,73.8,66.1,-100.00,SE,135,0.0,1.1,77,-99.99,,,-99.99,WSDL version 423,2013-06-03 14:54:00,
2013-06-03 11:00:00,74.2,66.3,-100.00,ESE,115,0.5,3.6,76,-99.99,,,-99.99,WSDL version 423,2013-06-03 15:00:00,
2013-06-03 11:06:00,74.8,66.4,-100.00,ENE,77,0.0,3.6,75,-99.99,,,-99.99,WSDL version 423,2013-06-03 15:06:00,
2013-06-03 11:12:00,75.7,66.7,-100.00,SE,132,0.0,0.9,74,-99.99,,,-99.99,WSDL version 423,2013-06-03 15:12:00,
2013-06-03 11:18:00,76.5,67.2,-100.00,SE,128,0.5,2.9,72,-99.99,,,-99.99,WSDL version 423,2013-06-03 15:18:00,
2013-06-03 11:24:00,76.8,66.5,-100.00,SE,135,0.0,4.3,71,-99.99,,,-99.99,WSDL version 423,2013-06-03 15:24:00,
2013-06-03 11:30:00,76.0,65.5,-100.00,SE,135,0.0,2.0,70,-99.99,,,-99.99,WSDL version 423,2013-06-03 15:30:00,
2013-06-03 11:36:00,76.6,66.4,-100.00,East,79,0.3,2.7,71,-99.99,,,-99.99,WSDL version 423,2013-06-03 15:36:00,
2013-06-03 11:42:00,77.1,66.1,-100.00,SSW,197,0.3,3.1,69,-99.99,,,-99.99,WSDL version 423,2013-06-03 15:42:00,
2013-06-03 11:48:00,76.9,65.9,-100.00,SSE,167,0.0,2.5,69,-99.99,,,-99.99,WSDL version 423,2013-06-03 15:48:00,
2013-06-03 11:54:00,76.7,65.3,-100.00,East,95,0.2,2.7,68,-99.99,,,-99.99,WSDL version 423,2013-06-03 15:54:00,
2013-06-03 12:00:00,77.4,66.0,-100.00,SE,146,0.0,2.7,68,-99.99,,,-99.99,WSDL version 423,2013-06-03 16:00:00,
2013-06-03 12:06:00,78.1,66.7,-100.00,SSE,155,0.4,1.6,68,-99.99,,,-99.99,WSDL version 423,2013-06-03 16:06:00,
2013-06-03 12:12:00,78.2,66.7,-100.00,East,98,0.0,1.6,68,-99.99,,,-99.99,WSDL version 423,2013-06-03 16:12:00,
2013-06-03 12:18:00,78.9,66.8,-100.00,North,3,0.0,0.0,66,-99.99,,,-99.99,WSDL version 423,2013-06-03 16:18:00,
2013-06-03 12:24:00,79.9,67.5,-100.00,ENE,70,0.7,2.5,65,-99.99,,,-99.99,WSDL version 423,2013-06-03 16:24:00,
2013-06-03 12:30:00,80.2,67.8,-100.00,East,90,0.0,2.5,65,-99.99,,,-99.99,WSDL version 423,2013-06-03 16:30:00,
2013-06-03 12:36:00,80.1,67.1,-100.00,ENE,58,0.4,2.2,64,-99.99,,,-99.99,WSDL version 423,2013-06-03 16:36:00,
2013-06-03 12:42:00,80.1,66.8,-100.00,South,180,0.0,2.2,64,-99.99,,,-99.99,WSDL version 423,2013-06-03 16:42:00,
2013-06-03 12:48:00,80.4,66.9,-100.00,East,90,0.0,0.0,63,-99.99,,,-99.99,WSDL version 423,2013-06-03 16:48:00,
2013-06-03 12:54:00,80.9,66.6,-100.00,East,90,0.0,1.3,62,-99.99,,,-99.99,WSDL version 423,2013-06-03 16:54:00,
2013-06-03 13:00:00,80.8,66.5,-100.00,West,265,0.0,1.3,62,-99.99,,,-99.99,WSDL version 423,2013-06-03 17:00:00,
2013-06-03 13:06:00,80.2,66.4,-100.00,NW,315,0.3,2.5,63,-99.99,,,-99.99,WSDL version 423,2013-06-03 17:06:00,
2013-06-03 13:12:00,80.1,66.4,-100.00,NNW,331,0.0,3.1,63,-99.99,,,-99.99,WSDL version 423,2013-06-03 17:12:00,
2013-06-03 13:18:00,79.4,65.6,-100.00,North,360,0.0,3.1,63,-99.99,,,-99.99,WSDL version 423,2013-06-03 17:18:00,
2013-06-03 13:24:00,78.9,65.1,-100.00,NNW,348,0.6,1.6,63,-99.99,,,-99.99,WSDL version 423,2013-06-03 17:24:00,
2013-06-03 13:30:00,78.5,65.3,-100.00,North,360,0.0,1.6,64,-99.99,,,-99.99,WSDL version 423,2013-06-03 17:30:00,
2013-06-03 13:36:00,78.3,64.9,-100.00,North,360,0.0,0.0,63,-99.99,,,-99.99,WSDL version 423,2013-06-03 17:36:00,
2013-06-03 13:42:00,77.7,64.6,-100.00,SW,225,0.0,1.6,65,-99.99,,,-99.99,WSDL version 423,2013-06-03 17:42:00,
2013-06-03 13:48:00,77.1,64.2,-100.00,East,90,0.0,2.0,65,-99.99,,,-99.99,WSDL version 423,2013-06-03 17:48:00,
2013-06-03 13:54:00,77.6,64.8,-100.00,ENE,64,0.4,2.9,64,-99.99,,,-99.99,WSDL version 423,2013-06-03 17:54:00,
2013-06-03 14:00:00,79.4,65.5,-100.00,NW,305,0.3,2.9,62,-99.99,,,-99.99,WSDL version 423,2013-06-03 18:00:00,
2013-06-03 14:06:00,80.8,66.6,-100.00,NW,318,0.0,2.2,62,-99.99,,,-99.99,WSDL version 423,2013-06-03 18:06:00,
2013-06-03 14:12:00,82.0,65.7,-100.00,SE,127,2.0,3.6,56,-99.99,,,-99.99,WSDL version 423,2013-06-03 18:12:00,
2013-06-03 14:18:00,81.8,64.7,-100.00,ESE,113,0.2,4.0,58,-99.99,,,-99.99,WSDL version 423,2013-06-03 18:18:00,
2013-06-03 14:24:00,82.7,66.7,-100.00,North,354,0.0,2.9,58,-99.99,,,-99.99,WSDL version 423,2013-06-03 18:24:00,
2013-06-03 14:30:00,83.6,66.4,-100.00,ESE,123,0.0,2.7,57,-99.99,,,-99.99,WSDL version 423,2013-06-03 18:30:00,
2013-06-03 14:36:00,82.4,65.3,-100.00,NW,305,0.0,2.5,57,-99.99,,,-99.99,WSDL version 423,2013-06-03 18:36:00,
2013-06-03 14:42:00,80.7,64.6,-100.00,East,101,0.0,0.0,58,-99.99,,,-99.99,WSDL version 423,2013-06-03 18:42:00,
2013-06-03 14:48:00,79.7,64.6,-100.00,SE,135,0.0,0.0,60,-99.99,,,-99.99,WSDL version 423,2013-06-03 18:48:00,
2013-06-03 14:54:00,79.4,64.5,-100.00,North,360,0.0,0.0,61,-99.99,,,-99.99,WSDL version 423,2013-06-03 18:54:00,
2013-06-03 15:00:00,79.7,65.1,-100.00,NW,312,0.0,0.0,61,-99.99,,,-99.99,WSDL version 423,2013-06-03 19:00:00,
2013-06-03 15:06:00,80.3,65.3,-100.00,WNW,302,0.0,0.0,60,-99.99,,,-99.99,WSDL version 423,2013-06-03 19:06:00,
2013-06-03 15:12:00,80.2,65.0,-100.00,NW,315,0.0,0.0,60,-99.99,,,-99.99,WSDL version 423,2013-06-03 19:12:00,
2013-06-03 15:18:00,79.6,64.8,-100.00,West,270,0.0,0.0,61,-99.99,,,-99.99,WSDL version 423,2013-06-03 19:18:00,
2013-06-03 15:24:00,78.8,64.5,-100.00,West,270,0.0,0.0,62,-99.99,,,-99.99,WSDL version 423,2013-06-03 19:24:00,
2013-06-03 15:30:00,78.2,64.6,-100.00,West,270,0.0,0.9,63,-99.99,,,-99.99,WSDL version 423,2013-06-03 19:30:00,
2013-06-03 15:36:00,77.8,64.5,-100.00,West,270,0.0,0.9,64,-99.99,,,-99.99,WSDL version 423,2013-06-03 19:36:00,
2013-06-03 15:42:00,77.6,64.5,-100.00,WNW,298,0.0,0.0,64,-99.99,,,-99.99,WSDL version 423,2013-06-03 19:42:00,
2013-06-03 15:48:00,78.1,65.2,-100.00,West,270,0.0,0.0,65,-99.99,,,-99.99,WSDL version 423,2013-06-03 19:48:00,
2013-06-03 15:54:00,78.8,65.6,-100.00,West,270,0.0,0.0,64,-99.99,,,-99.99,WSDL version 423,2013-06-03 19:54:00,
2013-06-03 16:00:00,78.4,65.2,-100.00,West,270,0.0,0.0,64,-99.99,,,-99.99,WSDL version 423,2013-06-03 20:00:00,
2013-06-03 16:06:00,78.3,65.2,-100.00,West,270,0.0,0.0,64,-99.99,,,-99.99,WSDL version 423,2013-06-03 20:06:00,
2013-06-03 16:12:00,78.0,65.3,-100.00,WNW,288,0.0,0.0,65,-99.99,,,-99.99,WSDL version 423,2013-06-03 20:12:00,
2013-06-03 16:18:00,78.1,65.3,-100.00,West,270,0.0,0.0,65,-99.99,,,-99.99,WSDL version 423,2013-06-03 20:18:00,
2013-06-03 16:24:00,78.1,65.4,-100.00,West,270,0.0,0.0,66,-99.99,,,-99.99,WSDL version 423,2013-06-03 20:24:00,
2013-06-03 16:30:00,78.4,65.7,-100.00,West,270,0.0,0.0,65,-99.99,,,-99.99,WSDL version 423,2013-06-03 20:30:00,
2013-06-03 16:36:00,78.1,65.4,-100.00,West,270,0.0,0.0,65,-99.99,,,-99.99,WSDL version 423,2013-06-03 20:36:00,
2013-06-03 16:42:00,78.4,65.6,-100.00,West,270,0.0,0.0,65,-99.99,,,-99.99,WSDL version 423,2013-06-03 20:42:00,
2013-06-03 16:48:00,78.8,65.9,-100.00,West,275,0.0,0.0,64,-99.99,,,-99.99,WSDL version 423,2013-06-03 20:48:00,
2013-06-03 16:54:00,78.7,65.5,-100.00,WSW,248,0.0,0.0,64,-99.99,,,-99.99,WSDL version 423,2013-06-03 20:54:00,
2013-06-03 17:00:00,78.0,64.8,-100.00,WSW,248,0.0,0.0,64,-99.99,,,-99.99,WSDL version 423,2013-06-03 21:00:00,
2013-06-03 17:06:00,77.3,64.2,-100.00,WSW,243,0.0,0.0,64,-99.99,,,-99.99,WSDL version 423,2013-06-03 21:06:00,
2013-06-03 17:12:00,76.9,64.1,-100.00,SW,225,0.0,0.0,65,-99.99,,,-99.99,WSDL version 423,2013-06-03 21:12:00,
2013-06-03 17:18:00,76.8,64.2,-100.00,SW,225,0.0,0.0,65,-99.99,,,-99.99,WSDL version 423,2013-06-03 21:18:00,
2013-06-03 17:24:00,77.4,64.7,-100.00,SW,225,0.0,0.0,65,-99.99,,,-99.99,WSDL version 423,2013-06-03 21:24:00,
2013-06-03 17:30:00,77.8,65.1,-100.00,SW,225,0.0,0.0,65,-99.99,,,-99.99,WSDL version 423,2013-06-03 21:30:00,
2013-06-03 17:36:00,78.0,65.2,-100.00,West,270,0.2,1.6,64,-99.99,,,-99.99,WSDL version 423,2013-06-03 21:36:00,
2013-06-03 17:42:00,77.7,64.6,-100.00,North,360,0.0,1.6,64,-99.99,,,-99.99,WSDL version 423,2013-06-03 21:42:00,
2013-06-03 17:48:00,77.5,64.6,-100.00,NNE,17,0.0,0.0,65,-99.99,,,-99.99,WSDL version 423,2013-06-03 21:48:00,
2013-06-03 17:54:00,77.1,64.5,-100.00,NW,315,0.0,0.0,66,-99.99,,,-99.99,WSDL version 423,2013-06-03 21:54:00,
2013-06-03 18:00:00,76.6,64.4,-100.00,NW,315,0.0,0.0,66,-99.99,,,-99.99,WSDL version 423,2013-06-03 22:00:00,
2013-06-03 18:06:00,76.2,64.1,-100.00,NW,315,0.0,0.0,67,-99.99,,,-99.99,WSDL version 423,2013-06-03 22:06:00,
2013-06-03 18:12:00,75.8,64.1,-100.00,NW,315,0.0,0.0,67,-99.99,,,-99.99,WSDL version 423,2013-06-03 22:12:00,
2013-06-03 18:18:00,75.6,64.2,-100.00,NNE,15,0.0,0.0,68,-99.99,,,-99.99,WSDL version 423,2013-06-03 22:18:00,
2013-06-03 18:24:00,75.6,64.3,-100.00,SE,135,0.0,0.0,68,-99.99,,,-99.99,WSDL version 423,2013-06-03 22:24:00,
2013-06-03 18:30:00,75.8,64.5,-100.00,SW,217,0.0,0.0,68,0.00,,,0.25,WSDL version 423,2013-06-03 22:30:00,
2013-06-03 18:36:00,76.4,64.9,-100.00,West,270,0.0,0.0,67,-99.99,,,-99.99,WSDL version 423,2013-06-03 22:36:00,
2013-06-03 18:42:00,76.8,65.0,-100.00,West,270,0.0,0.0,67,-99.99,,,-99.99,WSDL version 423,2013-06-03 22:42:00,
2013-06-03 18:48:00,77.6,65.8,-100.00,NW,315,0.0,0.0,67,-99.99,,,-99.99,WSDL version 423,2013-06-03 22:48:00,
2013-06-03 18:54:00,77.5,65.3,-100.00,North,360,0.0,0.0,66,0.00,,,0.25,WSDL version 423,2013-06-03 22:54:00,
2013-06-03 19:00:00,76.9,64.9,-100.00,North,360,0.0,0.0,67,-99.99,,,-99.99,WSDL version 423,2013-06-03 23:00:00,
2013-06-03 19:06:00,76.5,64.7,-100.00,North,360,0.0,0.0,67,-99.99,,,-99.99,WSDL version 423,2013-06-03 23:06:00,
2013-06-03 19:12:00,76.0,64.3,-100.00,WSW,248,0.0,0.0,67,0.00,,,0.25,WSDL version 423,2013-06-03 23:12:00,
2013-06-03 19:18:00,75.6,63.8,-100.00,NW,315,0.0,0.0,67,0.00,,,0.25,WSDL version 423,2013-06-03 23:18:00,
2013-06-03 19:24:00,75.2,63.5,-100.00,NW,315,0.0,0.0,67,-99.99,,,-99.99,WSDL version 423,2013-06-03 23:24:00,
2013-06-03 19:30:00,75.2,63.5,-100.00,NW,315,0.0,0.0,67,-99.99,,,-99.99,WSDL version 423,2013-06-03 23:30:00,
2013-06-03 19:36:00,75.0,63.3,-100.00,NW,315,0.0,0.0,67,-99.99,,,-99.99,WSDL version 423,2013-06-03 23:36:00,
2013-06-03 19:42:00,75.0,63.5,-100.00,NW,315,0.0,0.0,68,-99.99,,,-99.99,WSDL version 423,2013-06-03 23:42:00,
2013-06-03 19:48:00,74.8,63.6,-100.00,NW,315,0.0,0.0,68,0.00,,,0.25,WSDL version 423,2013-06-03 23:48:00,
2013-06-03 19:54:00,74.5,63.3,-100.00,NW,315,0.0,0.0,68,0.00,,,0.25,WSDL version 423,2013-06-03 23:54:00,
2013-06-03 20:00:00,74.0,62.8,-100.00,NW,315,0.0,0.0,68,-99.99,,,-99.99,WSDL version 423,2013-06-04 00:00:00,
2013-06-03 20:06:00,73.6,62.4,-100.00,NW,315,0.0,0.0,68,-99.99,,,-99.99,WSDL version 423,2013-06-04 00:06:00,
2013-06-03 20:12:00,73.4,62.5,-100.00,NW,315,0.0,0.0,69,0.00,,,0.25,WSDL version 423,2013-06-04 00:12:00,
2013-06-03 20:18:00,73.2,62.4,-100.00,NW,315,0.0,0.0,69,0.00,,,0.25,WSDL version 423,2013-06-04 00:18:00,
2013-06-03 20:24:00,73.0,62.3,-100.00,NW,315,0.0,0.0,69,0.00,,,0.25,WSDL version 423,2013-06-04 00:24:00,
2013-06-03 20:30:00,72.8,62.2,-100.00,NW,315,0.0,0.0,70,0.00,,,0.25,WSDL version 423,2013-06-04 00:30:00,
2013-06-03 20:36:00,72.7,62.3,-100.00,NW,315,0.0,0.0,70,0.00,,,0.25,WSDL version 423,2013-06-04 00:36:00,
2013-06-03 20:42:00,72.4,62.0,-100.00,NW,315,0.0,0.0,70,0.00,,,0.25,WSDL version 423,2013-06-04 00:42:00,
2013-06-03 20:48:00,72.3,61.9,-100.00,NW,315,0.0,0.0,70,-99.99,,,-99.99,WSDL version 423,2013-06-04 00:48:00,
2013-06-03 20:54:00,72.2,61.9,-100.00,NW,315,0.0,0.0,70,0.00,,,0.25,WSDL version 423,2013-06-04 00:54:00,
2013-06-03 21:00:00,72.1,61.8,-100.00,NW,315,0.0,0.0,70,0.00,,,0.25,WSDL version 423,2013-06-04 01:00:00,
2013-06-03 21:06:00,72.0,62.0,-100.00,NW,315,0.0,0.0,71,0.00,,,0.25,WSDL version 423,2013-06-04 01:06:00,
2013-06-03 21:12:00,72.0,62.1,-100.00,NW,315,0.0,0.0,71,-99.99,,,-99.99,WSDL version 423,2013-06-04 01:12:00,
2013-06-03 21:18:00,72.0,62.1,-100.00,SSE,158,0.0,0.0,71,-99.99,,,-99.99,WSDL version 423,2013-06-04 01:18:00,
2013-06-03 21:24:00,72.0,62.1,-100.00,SE,146,0.0,0.0,71,-99.99,,,-99.99,WSDL version 423,2013-06-04 01:24:00,
2013-06-03 21:30:00,72.0,61.9,-100.00,SW,220,0.7,3.8,70,-99.99,,,-99.99,WSDL version 423,2013-06-04 01:30:00,
2013-06-03 21:36:00,72.1,60.6,-100.00,East,84,1.4,4.7,65,-99.99,,,-99.99,WSDL version 423,2013-06-04 01:36:00,
2013-06-03 21:42:00,72.1,59.0,-100.00,ESE,113,1.0,4.7,61,-99.99,,,-99.99,WSDL version 423,2013-06-04 01:42:00,
2013-06-03 21:48:00,72.1,57.7,-100.00,SE,141,1.0,3.6,61,-99.99,,,-99.99,WSDL version 423,2013-06-04 01:48:00,
2013-06-03 21:54:00,72.1,58.2,-100.00,SE,127,0.0,2.7,62,-99.99,,,-99.99,WSDL version 423,2013-06-04 01:54:00,
2013-06-03 22:00:00,72.1,58.1,-100.00,SE,127,0.3,2.9,61,-99.99,,,-99.99,WSDL version 423,2013-06-04 02:00:00,
2013-06-03 22:06:00,72.0,57.8,-100.00,NNE,30,0.0,3.1,61,-99.99,,,-99.99,WSDL version 423,2013-06-04 02:06:00,
2013-06-03 22:12:00,71.8,57.4,-100.00,WNW,295,0.0,2.5,61,-99.99,,,-99.99,WSDL version 423,2013-06-04 02:12:00,
2013-06-03 22:18:00,71.5,57.1,-100.00,SSE,148,1.1,3.1,60,-99.99,,,-99.99,WSDL version 423,2013-06-04 02:18:00,
2013-06-03 22:24:00,71.3,57.2,-100.00,ESE,115,0.0,3.1,61,-99.99,,,-99.99,WSDL version 423,2013-06-04 02:24:00,
2013-06-03 22:30:00,71.1,56.9,-100.00,NE,51,0.0,2.2,61,-99.99,,,-99.99,WSDL version 423,2013-06-04 02:30:00,
2013-06-03 22:36:00,70.9,56.7,-100.00,SE,132,0.0,2.0,60,-99.99,,,-99.99,WSDL version 423,2013-06-04 02:36:00,
2013-06-03 22:42:00,70.7,56.0,-100.00,East,90,0.0,1.6,60,-99.99,,,-99.99,WSDL version 423,2013-06-04 02:42:00,
2013-06-03 22:48:00,70.4,55.9,-100.00,WNW,298,0.0,0.0,60,-99.99,,,-99.99,WSDL version 423,2013-06-04 02:48:00,
2013-06-03 22:54:00,70.2,55.4,-100.00,SE,138,0.4,1.3,59,-99.99,,,-99.99,WSDL version 423,2013-06-04 02:54:00,
2013-06-03 23:00:00,70.0,54.7,-100.00,SE,132,0.8,2.5,58,-99.99,,,-99.99,WSDL version 423,2013-06-04 03:00:00,
2013-06-03 23:06:00,69.9,54.8,-100.00,North,360,0.0,2.5,59,-99.99,,,-99.99,WSDL version 423,2013-06-04 03:06:00,
2013-06-03 23:12:00,69.6,54.8,-100.00,North,360,0.0,0.0,60,-99.99,,,-99.99,WSDL version 423,2013-06-04 03:12:00,
2013-06-03 23:18:00,69.4,54.7,-100.00,ESE,105,0.7,2.5,60,-99.99,,,-99.99,WSDL version 423,2013-06-04 03:18:00,
2013-06-03 23:24:00,69.3,54.4,-100.00,ENE,71,0.0,2.5,59,-99.99,,,-99.99,WSDL version 423,2013-06-04 03:24:00,
2013-06-03 23:30:00,69.2,54.1,-100.00,ESE,105,0.8,3.6,58,-99.99,,,-99.99,WSDL version 423,2013-06-04 03:30:00,
2013-06-03 23:36:00,69.2,53.0,-100.00,East,93,0.6,3.6,54,-99.99,,,-99.99,WSDL version 423,2013-06-04 03:36:00,
2013-06-03 23:42:00,69.0,51.7,-100.00,SE,129,1.5,3.1,53,-99.99,,,-99.99,WSDL version 423,2013-06-04 03:42:00,
2013-06-03 23:48:00,68.9,50.5,-100.00,NNE,16,0.4,3.1,52,-99.99,,,-99.99,WSDL version 423,2013-06-04 03:48:00,
2013-06-03 23:54:00,68.7,50.4,-100.00,NE,48,0.0,4.9,53,-99.99,,,-99.99,WSDL version 423,2013-06-04 03:54:00,